Location: Acari
(22.8246°S, 43.3414°W)
Time: 17:51:21
(UTC+00:00)

Daily predictions for brighter satellites

Satellite Brightness Start Highest point End
(mag) Time Altitude Azimuth Time Altitude Azimuth Time Altitude Azimuth
Cosmos 2279 Rocket 4.5 20:36:39 10° NNW 20:42:48 68° W 20:49:03 10° S
ATLAS 3B R/B 3.1 20:35:44 10° N 20:42:49 55° ENE 20:50:03 10° SE
COSMOS 2487 2.4 20:41:49 10° NNW 20:45:14 88° WSW 20:48:43 10° SSE
ATLAS 5 CENTAUR R/B 1.8 20:44:16 10° SSW 20:48:53 48° ESE 20:52:57 10° NE
Radarsat Rocket 4.0 20:43:17 10° SSE 20:49:07 74° ENE 20:55:07 10° N
H-2A R/B 0.9 20:48:11 10° WNW 20:50:08 59° NNE 20:54:42 10° ESE
Cosmos 1536 Rocket 3.8 20:45:48 10° S 20:50:14 77° W 20:54:38 10° N
Okean-O 4.5 20:51:31 10° ESE 20:53:29 13° E 20:55:27 10° ENE
Cosmos 1655 Rocket 4.2 20:49:03 10° S 20:55:09 51° E 21:01:13 10° NNE
Cosmos 1805 3.4 20:51:58 10° N 20:55:50 79° W 20:59:46 10° S
CORIOLIS 4.4 20:50:55 10° SSE 20:56:09 51° E 21:01:18 10° N
YAOGAN 6 2.6 20:52:46 10° SSE 20:56:14 54° E 20:59:39 10° N
USA 116 4.3 20:53:46 10° NNE 20:58:49 89° ESE 21:03:26 10° SSW
H-2A R/B 4.4 21:02:28 10° S 21:06:00 36° WSW 21:09:28 10° NW
Cosmos 2292 Rocket 3.6 21:04:50 10° SSE 21:07:33 26° E 21:10:05 10° NE
Cosmos 1766 3.8 21:04:52 10° NNW 21:08:41 61° W 21:12:33 10° S
Centaur AC-119 4.4 20:57:10 10° NW 21:11:27 43° N 21:15:04 14° E
CZ-2C R/B 3.9 21:12:28 10° ENE 21:15:48 17° ESE 21:19:08 10° SSE
GPS 2-04 Rocket1 3.6 21:13:06 10° SW 21:16:04 24° SSE 21:17:14 20° SE
Meteor 1-22 Rocket 4.2 21:11:17 10° N 21:16:43 87° W 21:22:25 10° S
ASTRO E2 3.1 21:14:42 10° WSW 21:18:35 46° SSE 21:20:51 22° E
Cosmos 1437 2.4 21:15:39 10° S 21:18:40 66° E 21:21:39 10° NNE
FengYun 1-2 T 4.4 21:13:42 10° SSE 21:19:16 54° E 21:24:47 10° N
Cosmos 1953 4.4 21:18:17 10° ENE 21:18:57 12° ENE 21:18:57 12° ENE
SL-14 R/B 4.2 21:19:30 15° SE 21:21:46 25° E 21:25:01 10° NE
Cosmos 2322 Rocket 2.1 21:16:22 10° SSW 21:22:04 86° ESE 21:27:41 10° NNE
CZ-4 R/B 2.7 21:22:16 20° E 21:22:39 21° E 21:25:45 10° NNE
ERBS 4.4 21:19:56 10° WNW 21:22:43 23° SW 21:25:33 10° S
Cosmos 1544 Rocket 3.9 21:18:42 10° NNE 21:22:57 45° E 21:27:06 11° SSE
Cosmos 2237 4.4 21:19:22 10° S 21:24:52 46° ESE 21:30:18 10° NE
GEOS 3 Rocket 3.6 21:21:17 10° NE 21:26:31 67° ESE 21:31:41 10° SSW
ASTEX 1 3.3 21:23:52 10° S 21:28:53 83° E 21:33:52 10° N
IRS-1C Rocket 4.0 21:25:28 10° SSE 21:30:46 71° ENE 21:36:00 10° N
USA 215 3.7 21:24:23 10° NNE 21:30:50 67° NW 21:37:21 10° SW
Meteor 2-5 Rocket 3.6 21:25:30 10° S 21:31:09 77° E 21:36:51 10° N
Cosmos 1726 4.3 21:32:42 10° NE 21:33:12 12° NE 21:33:12 12° NE
Cosmos 1470 2.7 21:32:41 10° N 21:36:38 72° E 21:39:42 17° SSE
Helios 1A Rocket 3.1 21:32:59 10° S 21:37:11 76° WSW 21:41:19 10° NNW
Cosmos 1939 Rocket 3.3 21:37:20 33° ESE 21:38:33 42° E 21:42:28 10° N
Cosmos 2297 Rocket 3.3 21:34:54 10° NNE 21:39:13 24° ENE 21:39:13 24° ENE
Cosmos 2084 Rocket 4.3 21:36:53 10° N 21:40:53 32° ENE 21:41:12 31° ENE
SL-24 R/B - RUBIN 2 3.6 21:39:14 10° SSW 21:43:46 88° ESE 21:48:49 10° NNE
Fermi 3.8 21:40:56 10° WNW 21:44:58 67° NNE 21:45:58 47° E
CZ-2D R/B 3.8 21:45:58 39° ENE 21:45:58 39° ENE 21:49:14 10° N
Cosmos 2322 4.5 21:40:42 10° S 21:44:48 30° SE 21:44:48 30° SE
NOAA 11 4.1 21:43:08 10° SSE 21:48:35 77° ENE 21:54:01 10° N
Cosmos 1777 Rocket 3.9 21:45:03 10° NNW 21:50:20 85° ENE 21:53:47 22° SSE
GPS 2-14 Rocket1 3.0 21:47:31 10° W 21:51:14 54° N 21:51:58 45° NE
Cosmos 2266 Rocket 4.3 21:45:56 10° SSW 21:51:58 66° W 21:57:56 10° N
Cosmos 1626 2.0 21:51:37 18° S 21:54:19 90° SSE 21:58:02 10° N
Meteor 1-24 Rocket 3.7 21:50:42 10° S 21:56:12 83° W 22:01:49 10° N
Exosat Rocket 4.3 21:52:19 10° NNE 21:57:21 41° E 21:57:54 40° E
Cosmos 1809 Rocket 4.4 21:51:33 10° S 21:57:45 68° E 22:03:53 10° NNE
IRS-P2 Rocket 4.5 21:55:48 19° SSE 21:59:37 89° WSW 22:04:51 10° NNW
Cosmos 1340 Rocket 3.0 21:55:46 10° N 21:59:02 55° NE 21:59:02 55° NE
Cosmos 2360 Rocket 2.1 21:54:12 10° SSW 21:59:52 87° WNW 22:05:29 10° NNE
NOSS 3-3 (A) 3.6 21:54:12 10° SSW 22:00:10 78° ESE 22:05:44 10° NNE
NOSS 3-3 (C) 3.6 21:54:18 10° SSW 22:00:17 77° ESE 22:05:50 10° NNE
MOS 1 Rocket 3.5 21:55:57 10° NNE 22:01:16 86° ESE 22:06:46 10° S
Cosmos 1417 Rocket 4.5 21:56:22 10° NNE 22:02:23 55° E 22:04:11 41° SE
ATLAS 5 CENTAUR R/B 1.0 21:59:56 10° WNW 22:02:25 60° N 22:02:42 58° NNE
Cosmos 1758 4.0 22:01:03 10° NNW 22:04:57 53° W 22:06:54 27° SSW
Meteor 2-8 Rocket 4.5 22:01:01 10° NNE 22:06:54 52° E 22:07:17 51° ESE
Cosmos 2333 Rocket 4.4 22:02:42 10° S 22:02:56 11° S 22:02:56 11° S
USA 234 4.2 22:10:37 29° NE 22:10:37 29° NE 22:15:49 10° N
SL-4 R/B 3.0 22:09:40 10° NNW 22:13:26 43° NNE 22:13:26 43° NNE
Cosmos 2227 Rocket 2.8 22:16:46 10° N 22:20:44 42° NNE 22:20:44 42° NNE
SWIFT 4.3 22:21:19 10° WNW 22:24:37 22° NNW 22:24:46 22° NNW
YAOGAN 1 3.4 22:25:58 47° NNW 22:25:58 47° NNW 22:29:07 10° NNW
Gbstr 26 Del rocket 3.7 22:19:21 10° SW 22:24:04 59° SSW 22:24:04 59° SSW
Aureole 3 Rocket 4.5 22:21:04 10° NNW 22:28:53 65° W 22:32:20 26° SSW
Okean-O 4.1 22:28:24 27° SW 22:29:56 35° WSW 22:33:57 10° NW
Cosmos 2219 3.1 22:24:49 10° NNW 22:30:27 81° WSW 22:30:31 80° WSW
Lacrosse 4 Rocket 3.3 22:35:50 10° NW 22:38:05 28° WNW 22:38:05 28° WNW
Delta 202 4.5 22:33:25 10° WNW 22:39:38 64° N 22:40:25 60° NNE
Cosmos 1553 Rocket 4.4 22:33:44 10° NNW 22:39:46 58° W 22:42:39 32° SSW
CSL-04 Rocket 4.4 22:46:06 48° NNW 22:46:06 48° NNW 22:50:00 10° NNW
S3M 4.1 22:41:10 10° N 22:47:19 72° W 22:47:19 72° W
CZ-2C R/B 3.9 22:51:01 10° NNW 22:55:44 35° W 23:00:29 10° SSW
CZ-4 R/B 4.1 22:58:17 18° W 22:58:17 18° W 23:00:21 10° WNW
Cosmos 2297 Rocket 4.2 23:18:10 10° NW 23:21:06 24° WNW 23:21:06 24° WNW
